User: anonymous   Login
Location: Clanezzo
(45.7500°N, 9.6000°E)
Time: 23:57:13
(UTC+00:00)
Language:

Cosmos 1125 Rocket - Orbit

View from above orbital plane
View from above orbital plane
View from above satellite
View from above satellite

Ground track
Ground track

The orbit data is extracted from the following two-line orbital elements,

1 11511U 79078B   21208.34186961  .00000058  00000-0  28458-4 0  9995
2 11511  74.0360  75.8007 0016306 310.4356  49.5374 14.36932838193930
Epoch (UTC): 27 July 2021 08:12:17
Eccentricity: 0.0016306
inclination: 74.0360°
perigee height: 757 km
apogee height: 780 km
right ascension of ascending node: 75.8007°
argument of perigee: 310.4356°
revolutions per day: 14.36932838
mean anomaly at epoch: 49.5374°
orbit number at epoch: 19393

The dashed part of the orbit path shows where the satellite is in the earth's shadow,  

DLR